Vorticity
3 2 8 10 6 7 3 4 5 9 10 11 8 8 8 12 12 7 7 19 12 6
17 13 3 2 5 8 5 6 9 11 11 7 5 7 12 8 6 11 15 12 7 5
3 -1 4 2 5 6 9 12 13 11 8 7 7 11 8 -0 17 14 17 8 5 3
5 0 8 10 12 13 14 13 10 8 6 10 13 7 7 22 14 16 9 2 4 6
-5 12 11 14 16 14 10 9 6 8 10 9 7 22 19 15 12 10 3 5 5 11
10 13 15 13 11 10 8 8 10 11 11 22 17 12 11 16 7 3 5 5 10 11
15 17 15 11 8 8 9 10 16 18 15 10 7 11 12 14 10 8 6 11 13 9
15 11 9 9 9 13 15 13 8 6 6 11 11 14 14 8 7 9 12 9 7 10
10 12 13 13 11 10 8 8 12 17 16 14 9 8 9 7 12 10 9 10 14 11
9 7 10 8 9 11 14 14 16 16 15 14 14 9 8 12 10 8 12 12 13 15
11 12 11 12 12 12 13 12 9 8 9 10 10 11 10 8 12 16 13 16 15 11
10 12 13 9 11 11 9 8 9 11 11 10 9 8 11 15 14 13 15 12 11 10
8 13 10 9 10 8 9 11 12 11 10 8 12 17 16 15 13 11 13 11 11 10
10 14 10 10 10 11 14 12 8 6 9 17 16 15 14 14 14 12 10 10 8 7
Height
5769 5769 5770 5770 5770 5770 5768 5767 5766 5764 5763 5761 5759 5757 5754 5751 5748 5745 5742 5739 5736 5733
5760 5761 5761 5761 5761 5760 5759 5757 5755 5753 5752 5751 5748 5745 5742 5740 5737 5735 5732 5730 5727 5724
5751 5752 5752 5751 5750 5749 5748 5747 5745 5744 5742 5740 5738 5735 5732 5730 5727 5724 5723 5720 5717 5713
5742 5742 5742 5741 5739 5738 5737 5736 5735 5734 5732 5730 5728 5725 5723 5720 5717 5715 5713 5710 5707 5703
5732 5731 5731 5730 5729 5728 5727 5726 5726 5724 5722 5720 5718 5715 5713 5711 5709 5706 5704 5701 5697 5692
5720 5720 5720 5719 5719 5718 5718 5717 5715 5714 5712 5710 5708 5706 5704 5702 5699 5697 5694 5691 5687 5683
5710 5710 5710 5710 5710 5709 5708 5706 5705 5703 5702 5700 5698 5696 5695 5692 5690 5688 5685 5681 5677 5673
5701 5701 5701 5701 5700 5699 5698 5697 5696 5694 5693 5691 5689 5687 5684 5682 5680 5678 5674 5671 5668 5663
5692 5692 5692 5692 5691 5690 5689 5688 5687 5685 5683 5681 5679 5677 5676 5674 5672 5668 5665 5662 5659 5654
5684 5684 5684 5683 5683 5682 5681 5679 5678 5675 5673 5672 5671 5669 5667 5665 5662 5660 5657 5654 5650 5646
5675 5675 5675 5675 5675 5674 5673 5671 5668 5667 5666 5665 5663 5662 5659 5657 5654 5651 5648 5645 5642 5639
5668 5668 5668 5668 5668 5667 5665 5663 5661 5660 5659 5658 5656 5654 5651 5648 5645 5642 5640 5638 5636 5634
5662 5661 5661 5660 5660 5659 5658 5657 5656 5654 5653 5651 5649 5646 5643 5641 5638 5636 5634 5633 5630 5628
5654 5654 5654 5654 5654 5653 5652 5651 5651 5650 5647 5645 5642 5639 5636 5634 5632 5630 5629 5626 5624 5621